GFSNGP_prec_cthk_000.txt.gz
RH
50 49 50 49 52 59 71 67 76 59 63 57 58 59 60 61 64 63 63 64 65 69 71 72 71 69 70 73 68 65 61 61 60 62 65 64 63 67 75 89 97 98 97 96
54 56 59 58 57 64 65 65 67 66 65 56 55 64 67 63 66 67 71 74 76 74 74 76 76 72 70 68 70 68 61 66 68 62 63 68 76 84 92 97 96 95 92 91
62 61 64 54 52 63 62 60 59 61 54 56 63 69 68 66 69 72 75 77 79 80 76 72 73 73 73 68 62 61 60 58 68 69 67 74 81 87 91 91 89 88 85 79
77 75 84 54 55 61 61 60 57 59 61 67 69 70 74 76 74 76 78 80 80 75 76 77 79 73 66 65 61 59 58 63 71 75 69 77 83 82 77 73 70 68 66 64
82 86 77 61 58 60 63 61 60 64 70 72 75 73 77 78 77 84 88 83 80 80 78 79 72 65 65 63 62 64 64 61 64 65 70 74 68 64 61 59 59 56 54 50
90 95 91 63 66 67 70 74 73 75 79 81 80 79 76 82 86 89 78 76 75 75 74 71 63 66 67 68 65 65 69 69 71 74 65 58 55 52 51 47 42 39 39 42
90 96 82 66 70 74 85 79 78 82 81 79 85 89 91 89 93 84 74 69 75 73 70 62 63 64 66 65 66 69 75 76 78 67 59 52 47 41 36 37 38 41 42 46
90 93 85 72 79 85 80 75 79 82 81 88 94 96 91 86 78 69 64 69 75 68 60 59 64 63 68 74 77 77 78 80 71 62 50 41 34 37 39 40 46 47 50 53
85 85 73 76 86 85 83 84 84 84 90 98 95 96 88 71 61 59 61 67 73 62 55 56 54 53 54 61 70 78 80 75 62 45 37 37 38 39 44 53 58 63 63 59
88 74 76 83 85 87 89 90 87 87 94 91 89 86 74 63 56 54 54 56 58 55 51 45 49 54 59 66 77 82 76 62 40 37 40 40 40 52 61 67 65 63 64 64
86 77 80 88 89 89 90 84 87 88 88 82 68 58 54 53 54 51 53 50 45 47 44 46 53 61 70 76 82 80 64 45 37 40 42 40 51 64 69 71 72 72 74 73
81 88 95 92 88 87 84 77 72 63 62 58 54 58 57 55 48 44 43 44 42 43 46 53 62 71 81 85 82 65 45 38 37 41 45 49 59 66 76 80 84 84 80 76
88 89 84 81 80 80 74 62 60 56 55 54 46 49 51 45 41 43 47 52 43 44 49 57 62 77 85 83 63 45 38 36 40 44 49 56 64 66 69 85 87 80 78 76
82 77 74 73 74 65 63 58 54 51 48 47 43 42 43 44 46 46 44 41 45 49 55 55 71 83 82 62 39 32 33 38 42 47 54 62 67 71 82 83 81 83 81 82
71 64 64 64 60 55 47 46 43 41 42 39 39 43 47 47 45 39 36 42 50 55 55 67 82 81 63 39 33 34 36 38 44 51 57 64 71 82 85 83 85 90 88 76
61 60 57 54 50 47 49 48 49 45 40 41 42 42 41 42 42 41 45 51 55 61 68 80 82 68 41 31 32 34 37 44 49 53 60 67 78 82 86 84 89 94 86 78
66 57 52 48 48 48 46 43 43 41 40 39 37 39 40 41 42 45 54 60 69 77 89 85 73 46 32 28 34 43 45 48 51 54 61 72 78 83 83 83 92 90 79 80
57 53 51 48 47 45 42 44 47 40 37 40 45 44 43 49 54 57 67 75 83 95 90 78 55 36 31 33 42 46 50 51 53 57 65 72 79 81 78 80 91 85 76 84
53 45 43 44 44 45 47 47 43 41 42 43 42 47 54 63 67 71 79 87 98 92 82 61 39 36 35 38 41 46 49 55 57 61 65 70 77 79 76 77 90 82 78 88
42 44 43 43 44 40 39 41 44 42 39 44 49 53 61 74 76 80 89 98 96 88 68 47 37 38 36 38 42 48 49 55 61 64 67 71 75 78 74 75 83 88 81 85
42 39 37 38 36 36 39 44 45 44 46 52 59 61 71 79 84 89 96 95 94 81 59 48 42 38 36 39 44 51 51 55 64 67 70 72 75 78 77 74 77 87 82 78
42 41 36 37 40 39 37 41 48 52 53 55 62 72 77 76 80 91 92 91 87 72 54 49 42 37 40 41 48 54 52 55 63 71 74 76 76 76 78 76 74 78 83 76
38 39 41 41 42 43 43 49 52 55 59 64 68 74 76 68 82 92 90 90 80 65 54 47 43 44 43 45 53 55 53 59 64 72 78 78 79 80 79 78 77 75 74 72
43 43 44 46 49 50 49 50 57 62 69 71 74 78 72 71 89 90 91 87 77 64 53 51 45 46 47 51 54 52 57 61 65 73 78 80 82 82 80 81 79 79 76 73
47 47 50 53 53 53 53 54 57 63 70 72 74 68 67 79 89 90 89 84 79 70 62 55 52 50 52 56 52 54 57 61 67 75 76 77 78 80 81 82 81 82 81 79
52 52 52 54 57 59 58 62 65 68 71 72 75 74 74 86 90 91 90 89 83 72 67 60 57 56 54 52 53 55 56 62 68 72 72 73 75 77 79 81 82 82 85 84
53 54 52 53 59 60 63 73 75 73 79 81 79 78 74 83 91 93 95 93 88 78 71 62 53 50 52 56 60 59 60 63 67 70 74 75 76 78 81 82 83 83 84 88

GFSNGP_prec_cthk_003.txt.gz
RH
45 46 47 48 51 55 62 64 74 62 62 55 57 58 59 61 64 63 65 68 68 71 71 71 72 67 65 62 64 62 63 66 65 63 68 65 67 69 75 81 82 87 89 90
54 54 54 54 52 60 65 66 67 67 64 57 58 60 66 67 66 67 70 73 74 75 77 75 69 64 63 69 65 63 68 64 63 63 61 59 63 68 75 78 77 75 73 71
58 61 58 53 53 62 63 62 63 64 57 59 62 68 68 67 68 71 73 76 85 82 73 67 76 75 71 63 58 58 58 60 57 54 51 57 62 64 63 59 56 53 53 54
73 70 71 49 59 60 62 59 60 60 62 66 69 72 73 73 74 80 81 86 87 72 76 79 71 63 54 51 56 60 57 56 55 58 60 61 62 59 54 51 46 41 37 35
80 80 70 57 57 59 63 59 61 67 67 69 71 75 77 77 81 86 89 85 80 78 77 67 61 56 48 51 57 55 58 61 62 62 63 64 58 50 42 33 31 32 34 37
86 90 83 63 63 64 68 70 73 74 76 80 80 83 81 88 88 92 81 74 74 74 74 60 56 46 47 49 53 59 64 63 68 71 68 62 47 37 33 34 35 37 43 49
85 88 74 65 66 70 83 85 84 86 86 82 83 87 87 87 87 84 79 72 68 64 59 55 49 47 45 45 48 58 65 72 81 77 66 42 38 38 36 37 45 52 57 61
86 86 82 68 74 81 82 87 89 88 87 88 89 87 87 83 77 71 60 49 49 53 56 55 52 46 39 38 43 53 66 78 80 64 40 37 40 40 41 54 58 60 60 66
84 78 75 77 79 83 88 93 90 89 88 84 83 73 66 62 59 51 47 46 47 50 47 49 51 44 39 43 50 63 73 82 63 43 38 39 43 44 54 63 64 66 75 78
88 80 79 81 89 92 90 88 91 92 82 71 61 57 50 50 51 51 43 39 40 42 44 48 48 46 47 51 57 70 82 69 44 43 39 43 49 54 63 68 70 79 82 82
85 77 81 84 92 93 90 89 83 72 62 55 52 50 48 48 46 43 38 39 39 39 42 45 47 50 60 62 71 82 77 47 43 41 42 48 52 60 66 75 83 83 82 82
87 87 88 90 90 91 87 79 67 64 56 52 44 42 45 42 39 37 35 35 33 36 44 48 53 59 58 65 80 81 50 41 41 40 45 50 54 61 76 84 84 83 85 87
91 87 92 92 88 78 70 64 56 49 42 42 46 46 40 37 33 34 36 37 39 39 45 51 60 61 67 78 84 56 40 38 39 43 47 51 56 64 74 83 86 84 91 92
90 87 85 83 76 68 63 54 47 47 49 48 37 33 33 33 33 37 40 39 39 42 51 63 67 74 82 87 63 40 38 39 40 47 51 54 60 69 73 76 78 88 94 84
86 82 78 75 71 65 56 49 46 43 37 37 39 39 39 36 37 38 41 45 49 57 65 73 80 91 90 72 41 34 36 44 50 52 53 57 64 69 73 73 78 91 88 75
77 73 71 67 62 56 51 46 40 37 40 40 37 35 36 37 38 43 53 60 62 70 79 88 97 94 80 44 33 31 41 47 52 55 57 63 66 68 71 69 78 91 79 80
71 64 56 51 51 45 40 39 43 41 38 36 36 36 36 37 44 52 62 69 74 81 95 97 96 84 52 38 36 40 43 49 54 58 62 64 67 67 68 67 76 88 78 86
54 51 48 44 40 37 36 34 31 32 34 35 36 36 40 47 54 58 73 75 81 92 95 93 84 60 40 38 39 42 46 51 56 58 64 66 69 70 69 64 71 83 77 84
48 44 41 42 41 37 33 32 34 35 35 36 39 41 47 53 61 70 75 82 89 92 91 84 63 47 41 40 39 42 48 55 57 59 66 69 71 72 71 67 66 75 77 78
44 44 40 35 33 33 34 37 38 35 37 43 47 48 50 59 70 77 74 82 86 89 87 71 55 50 43 42 40 43 52 57 56 60 67 72 75 76 74 72 68 69 75 74
39 36 34 33 32 32 36 38 39 38 40 45 51 54 61 67 74 77 71 78 84 88 82 64 54 51 43 43 43 47 56 58 57 60 67 73 77 79 78 77 73 71 69 71
35 33 34 35 36 33 35 37 42 43 44 47 54 62 67 71 78 77 75 82 87 87 76 62 52 49 45 44 47 51 56 54 56 61 67 75 78 80 82 81 78 74 75 68
35 37 37 38 39 38 37 43 45 49 48 52 58 67 73 75 77 72 78 86 90 87 76 63 54 51 49 46 48 54 52 54 58 62 69 75 77 76 76 77 79 78 77 76
39 38 39 42 42 44 43 43 47 51 52 60 70 76 76 75 72 75 80 86 90 86 78 68 63 56 55 54 56 52 51 56 58 63 67 72 72 72 72 73 75 80 80 79
41 41 42 46 46 45 46 50 50 51 57 70 76 83 82 84 80 79 86 92 91 89 83 75 70 65 59 55 49 52 55 58 59 63 65 69 72 71 71 74 77 80 82 83
43 44 47 50 52 52 52 55 54 57 66 70 78 81 84 82 78 77 84 88 90 93 91 84 74 64 53 50 55 57 57 60 61 63 66 70 75 73 73 74 76 78 81 83
47 52 53 53 57 56 57 61 60 59 67 74 76 85 87 88 88 87 88 90 92 95 93 83 70 61 57 56 58 59 61 63 65 68 71 74 78 74 72 73 74 77 81 84

GFSNGP_prec_cthk_009.txt.gz
RH
34 33 34 39 42 43 45 49 58 57 60 63 64 62 62 67 67 67 66 69 67 67 65 62 62 63 70 76 67 67 58 52 49 43 42 45 49 49 51 54 61 63 62 60
38 35 37 40 41 41 46 51 55 58 60 62 62 64 65 67 66 69 69 70 71 67 68 66 62 66 71 68 61 62 57 55 50 48 47 52 51 50 54 59 61 65 53 48
48 41 44 55 44 44 50 54 59 62 60 61 66 70 70 73 72 72 71 72 71 69 65 62 59 59 60 66 66 65 62 61 61 55 56 56 55 55 62 68 68 55 53 52
58 55 66 51 47 47 49 54 54 57 60 66 70 73 74 75 77 72 70 68 65 62 56 53 49 53 57 73 60 68 68 67 68 61 59 57 59 62 71 67 57 54 53 52
63 55 47 48 49 52 53 53 57 64 71 71 72 73 76 79 72 67 64 61 54 53 46 44 48 54 61 61 63 69 73 74 64 60 63 64 64 72 70 59 57 53 52 54
66 72 69 58 58 57 58 66 74 76 74 74 73 75 73 71 67 61 57 52 50 52 51 51 48 47 45 53 68 66 86 61 58 63 68 71 75 77 64 58 57 52 53 58
65 75 63 58 60 62 73 80 82 80 78 79 80 79 73 67 64 57 50 50 53 53 46 43 38 38 42 51 65 73 85 79 73 83 79 77 85 71 58 56 58 55 56 60
69 78 79 65 67 78 77 81 83 81 83 83 81 77 70 61 54 49 45 46 47 44 43 36 38 42 42 46 61 71 86 81 81 94 82 90 79 62 60 58 58 58 61 63
68 66 68 73 77 82 83 85 87 86 90 89 78 73 65 57 48 45 45 41 41 40 38 40 43 44 50 50 60 69 77 83 91 88 92 86 59 55 59 57 60 62 63 67
69 66 70 73 81 85 86 85 81 83 84 77 75 65 57 49 47 43 40 39 37 39 42 51 54 54 58 55 59 67 72 83 88 94 84 49 57 60 59 57 61 64 63 72
69 72 73 77 84 86 85 82 81 79 72 68 59 54 51 47 43 42 40 38 41 47 52 54 57 55 62 64 71 76 81 91 89 79 50 48 53 58 56 61 60 61 60 78
80 79 78 86 89 92 91 87 80 70 65 58 52 49 47 43 43 41 38 40 43 47 51 52 54 60 62 73 80 87 88 84 67 44 43 48 55 56 58 60 59 56 60 77
80 85 84 87 89 96 90 79 71 63 56 48 46 47 45 45 42 39 42 42 44 45 49 54 57 60 70 83 86 81 76 57 42 46 47 51 54 56 62 64 61 58 61 73
82 83 82 92 93 86 79 71 61 50 45 46 44 39 38 34 35 36 38 42 45 45 49 56 62 66 80 86 84 75 55 44 46 50 47 50 54 57 63 65 66 65 61 69
80 84 88 95 89 80 68 53 43 41 42 40 37 36 33 32 32 34 39 44 46 49 56 62 66 75 85 84 76 60 45 43 48 46 45 52 54 57 62 66 68 66 64 64
83 84 87 82 71 56 43 43 43 41 38 32 31 28 31 32 34 37 41 50 53 55 63 65 64 74 84 80 65 57 51 44 49 48 47 54 56 57 63 67 69 67 68 64
82 78 74 62 46 44 44 44 42 35 30 28 27 26 27 30 32 37 40 46 56 62 68 71 67 73 78 71 60 56 50 44 50 49 50 57 58 58 61 67 70 67 68 66
77 66 51 48 47 46 45 42 34 31 28 27 27 28 31 34 37 36 39 47 57 67 74 75 72 73 74 67 59 53 49 45 50 52 54 58 59 59 64 68 71 69 66 65
62 52 49 48 45 44 42 34 31 28 28 28 29 29 34 36 39 41 47 58 67 73 75 80 76 80 74 66 61 55 51 47 49 53 57 60 60 61 65 69 70 68 65 64
51 50 47 46 43 39 32 30 30 30 31 32 33 35 37 37 41 47 55 64 77 80 80 80 82 84 71 66 61 57 53 51 51 53 58 60 62 64 64 67 68 67 65 65
49 46 44 40 33 32 33 33 32 31 32 35 37 38 40 38 44 53 61 68 81 83 80 80 83 82 75 69 65 61 55 55 53 57 58 61 63 64 64 65 67 68 67 68
51 46 34 31 33 33 35 34 34 34 36 37 39 42 43 45 46 51 66 74 79 83 84 84 87 85 77 71 69 64 59 57 59 56 58 61 63 65 66 67 68 69 70 69
37 33 33 36 36 34 34 35 35 39 39 41 42 46 49 51 53 54 62 79 80 81 84 87 90 83 78 74 72 69 60 57 54 55 60 62 62 64 67 69 68 68 69 69
37 38 37 38 37 37 34 35 43 44 46 46 50 52 57 54 57 64 69 79 81 84 88 90 90 88 86 82 77 66 55 54 58 60 62 61 61 65 70 71 69 67 69 69
37 36 37 37 39 40 44 48 49 54 56 59 61 62 63 65 67 66 69 79 86 88 90 91 92 92 93 92 83 70 60 59 60 61 62 64 65 69 74 74 71 69 71 73
37 38 39 42 45 47 52 58 61 64 66 64 65 66 66 69 71 73 75 77 85 90 94 94 94 94 95 96 92 77 65 60 60 62 64 67 68 72 78 79 75 72 75 78
36 39 44 48 51 62 67 70 71 73 77 75 70 70 71 72 73 77 80 80 81 87 89 93 94 96 98 99 97 83 72 65 65 67 68 72 73 77 81 82 79 76 79 84

GFSNGP_prec_cthk_012.txt.gz
RH
29 29 30 30 32 35 38 44 52 50 54 60 64 64 63 60 59 59 60 63 66 61 60 55 52 52 51 52 55 63 62 79 70 65 61 49 51 49 51 50 50 55 60 56
33 30 31 30 34 35 38 43 46 52 53 61 62 60 62 61 62 65 65 66 63 59 55 54 52 54 50 52 59 61 58 78 71 63 86 81 77 55 58 56 59 64 66 59
43 36 37 53 43 39 43 49 51 58 57 61 64 65 69 64 64 68 70 65 60 58 60 55 50 43 46 50 52 46 45 59 62 78 93 78 81 65 65 62 70 76 66 59
50 46 51 38 37 41 46 49 53 58 66 71 72 71 69 70 72 74 67 60 58 59 51 49 44 48 43 40 36 39 52 65 50 82 77 86 84 76 62 72 84 68 58 60
56 48 36 38 43 46 50 51 55 63 69 73 74 71 72 74 75 66 62 61 56 47 45 45 49 48 41 36 36 42 46 53 49 91 84 88 92 82 63 85 75 59 59 65
58 59 52 42 50 51 53 60 69 70 74 74 71 73 73 71 63 64 60 54 45 44 47 48 44 41 36 37 39 42 49 50 57 85 96 94 92 68 82 83 59 60 59 57
57 57 50 42 49 53 63 73 72 78 76 76 77 77 73 70 67 58 55 46 44 42 42 39 39 36 39 40 41 47 50 53 69 75 98 92 72 78 83 58 59 56 53 57
56 62 59 49 56 63 67 74 78 79 80 78 76 77 70 68 61 53 48 42 39 38 36 36 34 42 47 46 42 46 50 54 59 63 67 70 81 79 57 55 54 53 57 56
50 49 48 57 63 67 71 77 82 86 79 75 75 70 65 57 53 49 43 40 37 38 35 35 45 51 53 48 47 50 54 63 67 73 81 83 69 47 52 54 55 58 58 55
49 41 46 57 67 75 78 85 85 83 78 79 72 69 60 55 49 44 40 36 37 33 36 39 41 47 48 46 51 55 68 74 80 81 81 53 44 50 52 52 56 58 58 52
44 45 56 66 72 79 84 85 89 88 80 76 72 63 55 44 42 40 39 39 34 38 39 38 41 45 45 50 54 65 75 76 73 74 50 42 43 46 53 53 58 58 58 55
50 56 64 73 83 87 87 90 87 79 76 74 67 50 41 40 38 37 36 34 33 35 38 39 41 44 49 55 62 72 74 71 61 46 42 46 45 48 52 53 58 58 58 56
53 63 74 85 90 88 85 85 83 79 77 63 51 43 40 37 34 34 30 32 35 38 39 41 47 51 58 61 69 79 75 58 47 42 49 49 45 45 51 54 57 58 58 57
66 77 83 86 85 83 78 77 75 69 59 53 44 39 35 33 33 31 30 32 33 36 38 42 51 61 66 66 71 78 71 53 45 43 46 47 46 48 54 53 56 62 61 58
79 84 86 85 83 82 77 73 63 54 47 43 39 35 35 33 29 27 29 30 32 35 39 44 55 65 72 71 71 69 67 59 49 46 47 48 47 51 55 54 59 64 66 63
85 89 85 85 79 73 63 53 48 47 46 39 34 32 31 28 27 26 27 31 32 31 42 54 63 70 74 74 72 66 63 61 53 49 49 50 50 55 57 57 60 64 66 62
89 83 82 79 70 58 50 49 48 46 39 35 32 30 27 26 25 26 28 31 35 43 54 63 69 73 76 77 76 69 65 60 53 51 51 51 52 58 58 60 60 63 65 61
85 83 79 69 58 52 50 50 46 41 36 34 31 28 27 27 28 28 30 33 37 45 60 68 73 73 76 79 80 70 62 58 54 53 53 53 56 58 61 61 61 62 63 62
79 74 70 60 54 50 49 45 40 36 35 32 30 28 29 29 30 32 34 39 45 51 62 71 76 76 76 80 70 65 63 60 56 55 57 57 59 59 63 63 61 61 61 63
75 67 58 51 50 48 43 34 35 37 34 34 32 32 30 31 34 35 39 45 51 56 66 70 76 79 79 77 68 64 63 62 59 56 57 61 57 60 64 63 60 61 62 63
66 60 54 52 47 38 34 37 38 35 34 35 36 35 35 34 39 43 47 48 52 59 71 76 77 79 82 81 75 70 67 64 60 56 59 57 59 61 62 63 63 64 63 63
61 55 51 42 36 37 38 38 35 35 34 35 39 41 41 45 48 49 58 60 57 62 70 75 80 83 85 82 76 76 73 70 61 55 54 57 61 64 61 63 64 64 62 61
56 48 40 38 38 37 35 35 35 36 36 41 45 49 53 56 61 63 56 63 64 67 72 77 82 85 87 88 85 81 77 71 61 56 57 59 61 61 61 64 67 67 65 62
45 41 39 37 35 34 33 35 39 42 44 47 56 62 66 64 65 73 71 68 68 69 74 80 87 89 89 91 90 90 89 81 67 61 60 61 62 65 65 68 71 72 69 65
37 35 34 33 34 35 38 45 50 54 66 69 71 73 76 81 79 72 73 73 71 74 77 80 85 91 92 93 95 96 96 93 79 65 61 63 64 68 71 75 77 79 76 73
35 35 35 37 40 43 47 51 59 67 73 69 72 80 81 83 83 80 77 74 73 76 78 83 85 88 92 95 97 98 99 98 93 78 67 67 69 73 76 79 82 84 84 82
37 38 42 44 46 53 58 69 75 76 78 80 80 83 84 83 80 79 77 74 75 75 76 81 88 92 94 96 97 97 98 98 92 81 72 71 74 77 81 83 85 88 89 89

GFSNGP_prec_cthk_015.txt.gz
RH
28 25 27 28 29 30 33 38 49 47 52 56 60 66 69 69 68 68 71 68 64 60 58 53 52 49 43 41 41 37 39 39 43 46 61 75 75 71 95 89 82 69 74 74
30 31 30 30 32 32 34 38 40 46 51 58 60 61 62 65 70 72 72 67 60 56 54 54 51 47 46 41 38 38 38 38 36 48 62 62 70 76 91 87 88 71 77 74
43 35 39 45 34 32 35 40 43 50 53 56 60 63 67 72 74 74 69 61 56 54 54 49 46 45 42 41 41 38 36 32 35 44 50 54 63 86 92 92 80 77 74 66
45 39 40 37 31 31 37 41 44 55 60 61 63 68 71 72 73 70 65 58 56 52 49 45 43 41 40 40 37 33 26 26 29 35 41 48 65 98 96 88 86 74 70 49
50 48 34 35 32 35 39 45 50 57 61 66 71 74 73 71 69 65 60 57 53 49 44 41 37 35 36 34 31 28 30 33 38 41 45 53 76 95 88 86 78 73 50 52
51 51 50 40 38 38 41 52 54 58 65 70 71 78 75 71 65 63 57 53 46 42 38 37 35 35 33 31 31 33 38 45 48 46 54 56 59 78 81 76 66 49 51 50
51 52 43 33 37 37 49 50 58 60 66 70 73 74 75 69 63 59 53 48 44 41 39 37 34 32 32 34 37 39 44 47 50 57 64 72 77 82 73 62 49 50 50 52
51 55 54 34 38 43 43 51 61 66 70 73 76 75 71 67 64 58 52 49 42 39 37 34 32 32 33 35 38 42 45 46 54 65 74 81 84 74 50 43 49 50 51 51
43 42 35 39 43 44 46 55 66 73 76 76 76 77 75 69 62 56 52 44 40 39 36 33 32 33 34 36 37 42 44 49 61 71 74 79 67 46 43 45 49 49 50 51
45 42 44 48 46 47 54 62 71 78 78 82 83 76 70 64 57 53 44 45 40 36 33 30 30 33 35 38 41 45 50 56 66 69 67 56 48 47 42 42 48 50 51 52
41 42 45 48 50 56 62 70 83 84 82 77 76 71 67 58 52 46 44 39 34 29 27 29 29 30 36 38 43 51 56 61 65 62 48 40 43 46 43 44 50 51 52 54
47 47 45 52 58 65 75 84 86 85 79 78 72 67 55 52 44 42 39 34 28 26 26 28 29 32 35 40 49 58 61 63 64 54 45 44 46 47 46 47 53 52 53 55
49 47 49 59 68 78 85 87 83 81 77 69 64 53 48 40 40 39 33 28 27 26 27 29 30 33 44 52 58 64 65 66 57 53 50 47 46 46 44 48 54 53 55 57
49 51 63 73 84 86 84 82 79 79 69 60 52 44 39 40 38 34 30 29 27 25 26 28 32 41 52 59 65 69 70 68 55 55 52 50 49 48 48 51 52 54 56 58
54 62 74 82 85 88 84 79 75 67 56 48 47 41 38 37 36 33 31 28 26 26 28 31 36 46 57 64 66 70 70 70 58 56 55 52 51 49 50 55 57 57 58 58
70 79 87 88 88 85 79 76 67 55 51 49 42 38 38 38 35 33 30 28 28 26 30 33 39 53 63 66 68 72 74 69 61 60 56 52 52 51 54 57 60 59 58 58
89 94 92 90 81 81 77 65 55 53 51 44 40 40 40 39 35 31 28 28 29 30 36 40 45 59 68 68 70 76 76 65 63 59 57 51 54 53 57 58 61 59 57 56
95 94 90 86 84 79 66 57 54 50 45 42 42 41 41 38 34 30 30 29 29 32 40 47 52 65 72 74 74 77 67 60 62 58 56 54 56 57 56 58 60 59 59 56
92 90 88 90 78 65 60 54 51 46 43 43 42 40 37 36 35 34 33 36 39 40 43 51 57 68 75 78 79 79 65 59 58 59 58 54 53 57 54 59 59 59 58 56
85 88 85 72 64 61 56 49 46 44 43 42 39 36 34 35 37 37 41 44 51 54 55 57 62 69 78 84 85 80 67 62 63 62 58 53 51 53 57 60 58 59 59 58
89 82 73 66 62 54 50 46 42 40 37 35 34 35 37 39 42 47 49 50 55 60 64 66 67 73 77 86 89 83 76 74 73 68 59 53 52 57 59 59 59 61 62 59
79 72 68 60 54 47 42 39 36 33 31 33 38 42 46 48 53 55 61 65 63 67 68 68 71 77 82 87 88 86 84 80 77 73 66 56 55 56 59 61 62 64 66 65
70 64 55 46 40 37 33 31 31 35 36 41 45 52 59 62 65 64 59 71 72 73 74 74 75 82 85 90 92 91 89 88 89 86 76 64 59 59 61 63 65 68 70 71
52 45 40 38 34 31 28 31 35 39 44 49 57 67 70 68 62 73 72 73 76 78 77 76 79 81 87 90 92 94 94 94 95 96 95 81 65 62 63 65 69 74 75 76
38 36 33 31 31 32 35 36 38 43 50 60 71 78 82 79 78 74 74 75 77 78 76 77 79 80 83 89 93 95 96 96 97 97 98 98 87 71 69 71 73 77 80 82
35 33 33 35 37 39 41 45 49 52 60 67 74 82 79 78 83 81 81 83 84 80 79 80 82 83 84 87 90 94 97 99 99 99 99 99 94 82 75 75 78 82 85 87
38 38 40 41 43 46 50 56 62 64 67 70 71 78 79 80 84 85 84 82 82 81 78 78 80 82 82 83 87 91 95 97 99 99 99 99 96 87 83 84 86 88 90 91

GFSNGP_prec_cthk_021.txt.gz
RH
30 29 25 25 26 28 31 31 35 30 33 33 41 45 48 51 56 60 62 64 65 66 71 75 66 61 55 47 42 41 40 37 35 31 29 30 30 29 27 37 48 52 61 74
31 31 31 27 26 28 28 27 32 31 35 34 39 45 50 54 59 62 64 66 66 70 71 70 65 56 50 47 44 41 38 34 32 31 33 33 32 27 31 41 46 57 66 75
29 36 33 29 27 29 27 27 29 36 33 38 44 50 55 58 61 65 67 70 70 69 69 64 58 53 52 48 44 40 37 35 35 38 38 34 29 29 36 47 59 65 69 70
36 35 32 23 26 27 27 27 31 33 35 37 43 50 55 59 63 67 70 68 67 66 64 60 56 55 50 46 43 39 35 37 40 38 32 32 31 36 45 56 65 72 72 62
41 42 30 25 28 29 30 28 32 33 37 39 46 53 55 61 65 68 69 68 66 66 63 59 55 51 48 44 37 36 36 38 36 33 32 34 38 45 55 62 70 75 63 51
52 38 33 22 27 28 30 37 31 35 36 41 48 58 57 60 64 67 66 66 66 67 59 55 53 50 44 39 38 37 36 35 34 32 35 37 43 52 62 70 74 59 51 51
55 47 37 25 30 31 40 30 32 34 36 42 51 55 56 63 71 71 71 70 71 61 56 55 49 42 38 37 36 35 35 34 34 38 39 41 48 56 64 62 56 53 51 47
54 55 40 26 34 35 31 29 34 37 40 47 57 60 65 67 71 74 73 72 64 59 55 48 40 37 36 35 35 36 34 36 39 43 44 46 51 57 58 56 54 51 47 44
42 38 28 29 29 31 34 36 40 43 49 57 62 65 70 76 76 75 73 69 63 54 46 40 38 36 36 35 36 35 36 40 44 49 49 52 56 56 53 52 55 52 47 47
39 31 33 35 37 38 41 44 46 51 59 64 67 76 84 81 76 76 71 63 52 45 40 39 38 38 37 36 34 33 36 44 50 54 56 58 59 55 50 52 55 53 49 49
44 40 41 41 42 44 46 48 54 60 62 65 74 81 77 77 77 72 62 52 44 42 42 40 39 39 38 34 32 35 37 46 54 59 63 64 63 58 54 55 56 53 50 51
45 41 43 42 44 48 52 55 57 61 67 76 79 78 80 79 72 60 53 47 45 44 42 41 40 37 34 32 33 36 39 50 58 63 69 72 68 61 58 56 57 53 50 56
44 46 48 51 54 55 56 60 65 72 76 78 87 84 80 70 60 55 51 49 47 44 43 41 37 33 32 32 34 38 45 54 61 65 72 74 70 65 62 58 59 55 52 59
54 56 56 55 55 59 67 75 78 80 84 91 88 80 71 64 56 52 50 49 46 44 42 37 32 29 30 34 37 41 51 59 64 69 74 76 70 65 65 56 59 57 57 60
58 59 60 63 66 74 81 82 84 90 94 86 81 77 69 62 53 51 51 48 45 41 36 32 29 29 34 38 42 50 58 65 71 74 76 75 68 65 65 59 58 57 59 60
61 63 68 73 78 85 86 87 96 94 86 84 79 69 61 55 54 52 48 45 38 32 31 29 31 38 44 48 54 59 65 69 78 82 81 73 72 67 63 63 58 58 58 60
75 79 81 83 88 92 97 97 95 91 88 79 65 60 58 56 52 46 44 36 33 33 32 35 39 45 48 55 60 65 69 75 81 90 85 73 69 64 64 62 55 57 55 60
82 85 90 93 97 98 93 93 95 81 68 59 60 61 57 52 46 39 34 33 33 37 42 44 47 50 54 59 66 69 73 79 86 93 88 74 70 70 67 60 57 57 54 59
89 91 93 97 97 97 92 81 74 70 71 67 61 57 52 45 37 34 34 34 38 40 45 50 54 56 57 61 67 72 76 81 88 93 86 75 73 75 70 61 58 58 56 59
93 95 95 90 89 90 85 77 69 66 64 61 56 48 40 37 36 35 36 39 49 51 53 58 59 59 60 63 68 72 76 81 87 91 89 83 79 81 79 71 63 60 61 61
91 88 88 85 79 74 69 68 66 64 57 47 41 40 37 35 38 41 42 45 54 61 63 63 64 65 64 65 67 71 75 79 85 91 92 90 87 89 88 82 72 64 62 64
92 90 87 78 71 70 67 60 52 46 44 42 39 37 38 39 43 48 53 57 59 66 67 66 66 69 68 69 70 72 78 81 87 90 91 93 94 96 97 97 95 83 71 66
87 82 75 68 61 55 50 48 46 44 41 38 38 41 44 44 46 52 50 58 62 62 62 66 71 74 71 71 74 75 78 81 86 91 94 93 95 96 99 99 99 98 97 86
66 61 57 52 48 47 45 42 40 40 40 43 46 51 51 49 45 54 56 57 63 65 64 70 76 76 75 74 75 77 80 83 86 87 89 90 93 96 97 98 98 99 98 98
49 48 47 45 43 42 42 44 44 48 47 45 47 50 51 53 53 55 62 63 66 68 69 76 81 82 78 80 81 78 77 75 74 75 78 81 85 90 95 96 96 99 99 98
40 41 42 46 48 49 50 49 48 47 47 42 40 45 42 41 47 54 60 65 68 70 75 82 86 83 81 82 81 77 71 68 65 62 64 68 77 83 89 93 94 97 99 99
43 45 45 47 50 52 53 52 48 41 41 43 43 43 44 46 51 60 68 72 76 80 83 87 88 86 83 81 80 73 66 61 57 57 55 63 68 76 85 90 94 95 98 98

GFSNGP_prec_cthk_024.txt.gz
RH
35 34 28 25 25 28 28 28 32 26 29 26 30 34 37 42 48 53 57 60 62 64 65 65 72 69 61 58 59 57 55 51 43 39 35 34 32 31 30 30 33 39 43 50
36 36 33 28 25 26 27 27 30 29 28 25 28 33 38 42 48 53 58 61 62 65 67 76 69 63 62 63 60 56 52 43 38 37 35 34 32 31 33 34 37 43 54 62
32 36 32 29 23 26 26 25 25 29 24 29 30 33 35 40 46 53 60 62 64 69 73 71 68 66 64 61 58 53 43 38 38 38 36 33 33 34 36 37 41 51 61 66
37 34 32 20 22 24 26 26 26 26 27 30 31 34 36 41 47 55 61 63 65 72 67 66 65 64 61 59 54 44 39 39 39 36 34 33 35 34 39 43 50 59 65 72
40 40 27 20 23 27 30 28 28 28 31 31 34 36 37 42 50 58 62 66 69 70 69 68 65 62 60 54 43 39 39 38 37 35 33 34 35 36 41 49 58 64 65 55
49 37 33 23 24 27 28 36 26 28 32 34 36 43 36 45 55 62 66 66 71 71 70 70 65 61 52 42 41 41 40 39 37 35 34 35 39 41 45 52 56 58 55 53
57 47 37 26 29 30 37 31 27 28 30 35 39 37 41 49 56 62 67 70 72 72 73 70 64 53 44 43 43 41 39 37 36 36 36 38 41 45 49 53 53 55 54 54
57 56 44 30 35 37 32 28 28 32 35 38 41 45 49 54 61 66 75 73 75 77 76 66 54 46 44 44 42 40 38 35 34 35 39 43 47 51 55 58 54 52 52 49
43 40 31 32 32 32 32 34 36 38 40 45 50 54 59 64 63 81 81 81 79 79 66 53 47 46 46 43 41 40 35 31 31 34 43 48 52 56 60 60 56 56 57 52
39 33 34 34 34 36 39 41 44 47 51 52 58 68 69 69 80 86 79 79 79 66 54 49 50 48 45 43 41 35 30 29 32 36 46 54 58 60 63 60 59 59 57 57
43 39 40 39 40 42 42 44 47 50 55 64 70 72 78 83 83 82 85 76 64 55 56 55 51 47 45 41 34 29 29 31 35 44 52 58 62 68 71 65 62 61 60 59
46 40 41 40 42 44 47 50 55 59 62 66 72 81 87 91 87 82 76 61 63 62 56 52 48 45 41 36 29 29 30 36 41 50 58 63 68 74 76 66 60 59 60 59
46 48 51 53 57 59 59 61 62 66 72 77 90 94 95 90 83 74 71 66 62 57 53 48 44 41 37 31 30 33 37 41 49 57 62 70 75 77 76 67 60 60 60 60
60 61 61 63 63 62 63 66 70 77 80 88 97 95 87 84 78 73 65 61 58 53 49 44 41 35 33 33 36 39 43 51 55 61 70 77 83 82 76 70 66 62 61 61
64 64 63 63 65 69 74 81 85 88 93 96 90 89 85 81 74 69 62 57 53 49 45 42 37 35 35 35 38 42 50 54 61 68 75 80 87 84 76 72 67 65 63 61
66 71 75 76 78 80 86 88 92 96 97 94 94 87 78 69 71 61 55 51 47 46 44 39 38 36 36 40 43 45 53 60 66 72 79 83 89 82 73 71 68 69 64 59
78 80 83 84 88 91 93 94 96 97 96 87 76 70 75 71 62 55 50 47 48 46 43 41 38 38 41 46 48 48 53 61 69 75 81 87 91 82 74 72 68 66 62 62
83 84 87 91 91 91 95 93 90 87 82 82 82 76 68 63 55 51 49 49 46 45 44 41 40 44 48 53 54 54 57 61 69 73 80 86 90 81 77 76 75 67 63 65
85 86 88 91 93 92 92 92 88 83 77 75 71 66 59 53 51 50 49 47 45 43 42 45 49 52 55 58 60 60 61 62 68 72 77 84 90 83 79 80 84 79 69 63
87 87 88 90 88 86 83 77 73 71 68 63 58 54 50 50 49 46 45 43 44 46 47 51 55 58 61 62 64 69 68 68 68 73 79 83 87 88 87 87 92 90 82 73
87 86 84 82 77 72 70 69 65 61 56 52 50 48 46 46 46 46 44 41 40 53 55 57 60 60 61 64 67 73 73 73 71 76 80 84 88 92 92 92 93 97 96 93
87 84 83 75 69 66 62 59 55 51 49 48 47 46 44 41 42 42 44 49 45 51 56 61 61 64 70 70 72 75 78 77 79 80 84 88 90 90 93 93 97 98 98 98
76 69 64 60 55 52 49 47 45 44 44 44 43 43 42 40 41 45 42 42 45 51 55 60 65 66 72 75 77 80 82 83 81 82 83 85 84 84 85 89 93 96 99 98
59 54 49 46 44 42 40 40 42 43 43 42 45 49 48 45 37 45 45 39 41 49 54 61 65 68 76 78 81 84 84 82 81 80 76 71 72 74 74 77 82 90 95 97
45 42 40 38 39 42 42 42 42 44 43 40 39 40 43 47 49 40 40 40 47 58 65 71 73 76 79 82 84 84 84 81 78 75 72 68 63 58 60 65 72 78 84 93
40 40 42 42 43 43 44 43 40 38 39 39 41 44 41 43 47 49 50 51 57 64 70 74 78 81 83 86 86 85 84 81 75 72 65 62 61 60 60 62 67 75 81 86
40 40 42 43 46 47 46 45 45 45 46 46 41 40 41 44 49 53 56 60 66 70 74 78 80 82 84 88 89 87 85 81 76 72 66 64 65 66 66 68 70 74 80 86